AE5HO Weather Reports


Display with metric or nautical units.
time (UTC)temp
F
wind
direction
speed
MPH
gust
MPH
rain 1hr
in
rain 24hr
in
rain mn
in
humidity
%
barometer
mb
20260906090849 82 174 0.0 0.0 0.00 0.00 0.00 80 1012.8
20260906090347 82 188 0.0 0.0 0.00 0.00 0.00 79 1013.1
20260906085842 82 188 0.0 1.0 0.00 0.00 0.00 79 1013.1
20260906085341 82 185 0.0 2.0 0.00 0.00 0.00 79 1013.0
20260906084836 82 262 0.0 0.0 0.00 0.00 0.00 79 1013.0
20260906084337 82 195 0.0 1.0 0.00 0.00 0.00 79 1013.0
20260906083831 82 173 0.0 0.0 0.00 0.00 0.00 79 1013.3
20260906083327 82 188 0.0 1.0 0.00 0.00 0.00 79 1012.8
20260906082826 82 263 0.0 1.0 0.00 0.00 0.00 78 1013.1
20260906082321 82 270 0.0 2.0 0.00 0.00 0.00 78 1012.8
20260906081817 82 180 0.0 0.0 0.00 0.00 0.00 79 1012.6
20260906081313 82 203 0.0 1.0 0.00 0.00 0.00 78 1012.7
20260906080809 82 180 0.0 2.0 0.00 0.00 0.00 79 1012.9
20260906080305 82 194 0.0 0.0 0.00 0.00 0.00 78 1012.9
20260906075804 82 185 0.0 2.0 0.00 0.00 0.00 79 1013.0
20260906075306 82 172 1.0 1.0 0.00 0.00 0.00 79 1012.8
20260906074759 82 180 0.0 1.0 0.00 0.00 0.00 79 1013.1
20260906074259 82 188 0.0 1.0 0.00 0.00 0.00 79 1013.0
20260906073758 82 180 0.0 1.0 0.00 0.00 0.00 78 1013.1
20260906073253 82 254 1.0 1.0 0.00 0.00 0.00 78 1013.1
20260906072749 82 180 0.0 0.0 0.00 0.00 0.00 78 1013.3
20260906072244 82 180 0.0 0.0 0.00 0.00 0.00 77 1013.1
20260906071741 83 180 0.0 0.0 0.00 0.00 0.00 77 1013.4
20260906071240 83 180 0.0 1.0 0.00 0.00 0.00 77 1013.0
20260906070737 83 257 0.0 0.0 0.00 0.00 0.00 76 1013.3
20260906070233 83 257 0.0 1.0 0.00 0.00 0.00 76 1013.4
20260906065732 83 195 0.0 0.0 0.00 0.00 0.00 75 1013.5
20260906065227 83 180 0.0 0.0 0.00 0.00 0.00 75 1013.4
20260906064723 84 180 0.0 0.0 0.00 0.00 0.00 75 1013.4
20260906064218 84 188 0.0 1.0 0.00 0.00 0.00 75 1013.3
20260906063713 84 180 0.0 0.0 0.00 0.00 0.00 75 1013.4
20260906063209 84 188 0.0 0.0 0.00 0.00 0.00 76 1013.5
20260906062705 83 180 0.0 0.0 0.00 0.00 0.00 76 1013.1
20260906062203 83 180 0.0 0.0 0.00 0.00 0.00 77 1013.3
20260906061659 84 188 0.0 1.0 0.00 0.00 0.00 78 1013.4
20260906061155 84 180 0.0 0.0 0.00 0.00 0.00 75 1013.5
20260906060651 84 180 0.0 0.0 0.00 0.00 0.00 73 1013.6
20260906060148 85 180 0.0 0.0 0.00 0.00 0.00 71 1013.4
20260906055643 84 195 0.0 0.0 0.00 0.00 0.00 70 1013.7
20260906055138 84 195 0.0 0.0 0.00 0.00 0.00 70 1013.3
20260906054634 85 195 0.0 0.0 0.00 0.00 0.00 70 1013.0
20260906054128 85 195 0.0 0.0 0.00 0.00 0.00 70 1013.4
20260906053625 85 195 0.0 0.0 0.00 0.00 0.00 69 1013.5
20260906053120 85 195 0.0 0.0 0.00 0.00 0.00 69 1013.4
20260906052616 86 249 0.0 0.0 0.00 0.00 0.00 69 1013.4
20260906052112 86 215 0.0 1.0 0.00 0.00 0.00 68 1013.6
20260906051608 86 270 0.0 1.0 0.00 0.00 0.00 68 1013.4
20260906051103 86 254 0.0 0.0 0.00 0.00 0.00 68 1013.3
20260906050558 86 254 0.0 0.0 0.00 0.00 0.00 67 1013.8
20260906050054 86 255 0.0 1.0 0.00 0.00 0.00 67 1013.4
20260906045551 86 180 0.0 0.0 0.00 0.00 0.00 67 1013.6
20260906045047 86 215 0.0 1.0 0.00 0.00 0.00 67 1013.6
20260906044543 87 195 0.0 0.0 0.00 0.00 0.00 67 1013.3
20260906044038 86 194 0.0 1.0 0.00 0.00 0.00 67 1013.3
20260906043533 87 172 0.0 1.0 0.00 0.00 0.00 66 1013.4
20260906043030 87 186 0.0 0.0 0.00 0.00 0.00 65 1013.3
20260906042528 87 186 0.0 0.0 0.00 0.00 0.00 65 1013.3
20260906042023 87 186 0.0 1.0 0.00 0.00 0.00 65 1013.3
20260906041520 87 195 0.0 1.0 0.00 0.00 0.00 64 1013.0
20260906041019 88 279 0.0 1.0 0.00 0.00 0.00 64 1013.1
20260906040514 88 270 0.0 0.0 0.00 0.00 0.00 63 1013.3
20260906040010 88 5 0.0 2.0 0.00 0.00 0.00 63 1013.1
20260906035505 88 203 1.0 1.0 0.00 0.00 0.00 63 1013.3
20260906035001 88 180 0.0 2.0 0.00 0.00 0.00 63 1013.4
20260906034500 88 279 1.0 2.0 0.00 0.00 0.00 62 1013.3
20260906033956 88 203 0.0 2.0 0.00 0.00 0.00 61 1013.3
20260906033456 88 191 0.0 2.0 0.00 0.00 0.00 61 1013.1
20260906032952 88 188 0.0 2.0 0.00 0.00 0.00 61 1013.0
20260906032449 89 270 0.0 0.0 0.00 0.00 0.00 61 1013.3
20260906031948 89 267 3.0 3.0 0.00 0.00 0.00 60 1013.3
20260906031444 89 194 0.0 2.0 0.00 0.00 0.00 60 1013.5
20260906030939 89 190 0.0 2.0 0.00 0.00 0.00 61 1013.5
20260906030433 89 203 0.0 2.0 0.00 0.00 0.00 61 1013.4
20260906025928 89 188 0.0 1.0 0.00 0.00 0.00 61 1013.4
20260906025422 89 186 1.0 3.0 0.00 0.00 0.00 60 1013.4
20260906024921 89 180 0.0 1.0 0.00 0.00 0.00 60 1013.3
20260906024420 89 194 0.0 1.0 0.00 0.00 0.00 60 1013.5
20260906023916 89 188 2.0 2.0 0.00 0.00 0.00 59 1013.0
20260906023412 89 180 0.0 2.0 0.00 0.00 0.00 59 1013.3
20260906022912 89 203 1.0 3.0 0.00 0.00 0.00 59 1012.9
20260906022407 89 195 0.0 2.0 0.00 0.00 0.00 59 1012.9
20260906021902 89 255 0.0 3.0 0.00 0.00 0.00 58 1012.7
20260906021403 89 188 0.0 2.0 0.00 0.00 0.00 58 1012.5
20260906020857 90 198 0.0 3.0 0.00 0.00 0.00 58 1012.7
20260906020357 90 180 0.0 2.0 0.00 0.00 0.00 59 1012.5
20260906015851 90 180 0.0 1.0 0.00 0.00 0.00 59 1012.5
20260906015351 91 206 0.0 2.0 0.00 0.00 0.00 58 1012.6
20260906014851 91 258 0.0 2.0 0.00 0.00 0.00 58 1012.2
20260906014351 91 184 2.0 4.0 0.00 0.00 0.00 58 1012.1
20260906013847 91 63 0.0 3.0 0.00 0.00 0.00 56 1012.1
20260906013342 92 191 0.0 2.0 0.00 0.00 0.00 56 1012.1
20260906012838 92 183 3.0 3.0 0.00 0.00 0.00 54 1011.9
20260906012333 93 68 2.0 3.0 0.00 0.00 0.00 53 1011.8
20260906011832 93 185 2.0 3.0 0.00 0.00 0.00 52 1011.4
20260906011327 94 156 5.0 5.0 0.00 0.00 0.00 50 1011.5
20260906010823 94 180 0.0 0.0 0.00 0.00 0.00 48 1011.4
20260906010319 94 188 0.0 2.0 0.00 0.00 0.00 47 1011.3
20260906005814 95 180 0.0 2.0 0.00 0.00 0.00 48 1011.2
20260906005313 95 209 0.0 3.0 0.00 0.00 0.00 47 1011.5
20260906004812 95 157 2.0 2.0 0.00 0.00 0.00 47 1011.3
20260906004312 95 188 0.0 1.0 0.00 0.00 0.00 46 1011.5
20260906003808 96 172 0.0 1.0 0.00 0.00 0.00 46 1011.3
20260906003303 96 180 0.0 1.0 0.00 0.00 0.00 45 1011.2
20260906002759 97 195 0.0 0.0 0.00 0.00 0.00 46 1011.4
20260906002257 97 126 0.0 3.0 0.00 0.00 0.00 44 1011.2
20260906001753 97 187 1.0 2.0 0.00 0.00 0.00 43 1011.3
20260906001248 98 71 2.0 2.0 0.00 0.00 0.00 43 1011.2
20260906000744 99 180 0.0 1.0 0.00 0.00 0.00 43 1011.2
20260906000244 99 261 0.0 1.0 0.00 0.00 0.00 43 1011.3
20260905235739 99 203 0.0 0.0 0.00 0.00 0.00 43 1011.2
20260905235238 99 194 0.0 1.0 0.00 0.00 0.00 42 1011.1
20260905234734 99 240 0.0 1.0 0.00 0.00 0.00 42 1010.9
20260905234229 99 255 0.0 1.0 0.00 0.00 0.00 43 1010.9
20260905233725 99 173 0.0 1.0 0.00 0.00 0.00 42 1011.1
20260905233224 100 180 0.0 1.0 0.00 0.00 0.00 42 1010.9
20260905232719 100 262 0.0 1.0 0.00 0.00 0.00 43 1011.1
20260905232214 102 270 0.0 2.0 0.00 0.00 0.00 41 1011.2
20260905231710 100 190 0.0 0.0 0.00 0.00 0.00 41 1011.1
20260905231206 100 162 2.0 3.0 0.00 0.00 0.00 40 1011.1
20260905230701 100 175 0.0 2.0 0.00 0.00 0.00 41 1011.0
20260905230159 100 192 0.0 2.0 0.00 0.00 0.00 41 1010.9
20260905225659 100 53 0.0 3.0 0.00 0.00 0.00 41 1010.9
20260905225154 100 264 2.0 3.0 0.00 0.00 0.00 40 1011.4
20260905224654 100 191 4.0 4.0 0.00 0.00 0.00 40 1011.3
20260905224154 100 254 0.0 2.0 0.00 0.00 0.00 40 1010.9
20260905223650 101 203 0.0 2.0 0.00 0.00 0.00 41 1010.9
20260905223147 100 173 0.0 1.0 0.00 0.00 0.00 40 1010.9
20260905222643 100 168 0.0 4.0 0.00 0.00 0.00 40 1011.2
20260905222143 100 261 0.0 1.0 0.00 0.00 0.00 42 1011.1
20260905221638 100 196 2.0 3.0 0.00 0.00 0.00 42 1010.9
20260905221135 99 203 1.0 1.0 0.00 0.00 0.00 40 1011.0
20260905220630 99 200 0.0 2.0 0.00 0.00 0.00 41 1011.5
20260905220126 100 188 0.0 1.0 0.00 0.00 0.00 41 1011.2
20260905215626 100 154 0.0 2.0 0.00 0.00 0.00 41 1011.5
20260905215122 100 203 0.0 2.0 0.00 0.00 0.00 42 1011.2
20260905214618 100 0 0.0 2.0 0.00 0.00 0.00 43 1011.4
20260905214118 100 190 0.0 0.0 0.00 0.00 0.00 41 1011.7
20260905213613 100 160 0.0 2.0 0.00 0.00 0.00 42 1011.4
20260905213109 99 270 0.0 2.0 0.00 0.00 0.00 45 1011.5
20260905212608 98 180 0.0 1.0 0.00 0.00 0.00 43 1011.8
20260905212108 99 203 0.0 0.0 0.00 0.00 0.00 42 1011.5
20260905211603 99 165 0.0 2.0 0.00 0.00 0.00 42 1011.9
20260905211059 99 90 0.0 2.0 0.00 0.00 0.00 43 1011.9
20260905210555 99 192 2.0 2.0 0.00 0.00 0.00 43 1011.9
20260905210050 100 90 0.0 3.0 0.00 0.00 0.00 43 1012.0
20260905205549 99 188 1.0 2.0 0.00 0.00 0.00 44 1011.8
20260905205048 99 198 2.0 4.0 0.00 0.00 0.00 43 1012.0
20260905204543 98 195 0.0 2.0 0.00 0.00 0.00 45 1012.0
20260905204039 98 180 0.0 3.0 0.00 0.00 0.00 45 1012.0
20260905203538 98 183 2.0 2.0 0.00 0.00 0.00 45 1012.2
20260905203034 98 270 0.0 1.0 0.00 0.00 0.00 46 1012.2
20260905202529 98 200 0.0 3.0 0.00 0.00 0.00 45 1012.3
20260905202024 98 257 2.0 2.0 0.00 0.00 0.00 45 1012.6
20260905201520 98 185 0.0 2.0 0.00 0.00 0.00 46 1012.8
20260905201019 98 184 0.0 2.0 0.00 0.00 0.00 45 1012.6
20260905200515 98 180 0.0 2.0 0.00 0.00 0.00 45 1012.7
20260905200015 98 0 0.0 2.0 0.00 0.00 0.00 46 1012.7
20260905195514 97 300 0.0 2.0 0.00 0.00 0.00 46 1013.1
20260905195010 97 180 0.0 1.0 0.00 0.00 0.00 46 1012.8
20260905194510 98 262 0.0 3.0 0.00 0.00 0.00 47 1013.1
20260905194010 97 195 0.0 2.0 0.00 0.00 0.00 47 1013.0
20260905193510 97 123 0.0 2.0 0.00 0.00 0.00 46 1013.1
20260905193005 98 270 0.0 3.0 0.00 0.00 0.00 46 1013.4
20260905192500 98 176 4.0 4.0 0.00 0.00 0.00 46 1013.3
20260905191956 97 173 0.0 2.0 0.00 0.00 0.00 48 1013.5
20260905191455 97 261 0.0 1.0 0.00 0.00 0.00 47 1013.7
20260905190955 96 174 0.0 2.0 0.00 0.00 0.00 48 1013.4
20260905190453 95 5 0.0 2.0 0.00 0.00 0.00 50 1013.9
20260905185951 95 270 0.0 3.0 0.00 0.00 0.00 49 1013.8
20260905185447 96 270 0.0 2.0 0.00 0.00 0.00 49 1014.0
20260905184945 96 282 2.0 3.0 0.00 0.00 0.00 48 1014.1
20260905184440 96 180 0.0 2.0 0.00 0.00 0.00 49 1014.3
20260905183939 96 180 0.0 2.0 0.00 0.00 0.00 49 1014.1
20260905183439 96 190 3.0 3.0 0.00 0.00 0.00 49 1014.3
20260905182934 96 204 0.0 2.0 0.00 0.00 0.00 51 1014.2
20260905182433 96 77 1.0 3.0 0.00 0.00 0.00 49 1014.3
20260905181929 96 176 0.0 3.0 0.00 0.00 0.00 53 1014.6
20260905181429 95 203 0.0 2.0 0.00 0.00 0.00 55 1014.6
20260905180928 94 203 0.0 1.0 0.00 0.00 0.00 54 1014.9
20260905180423 95 180 2.0 3.0 0.00 0.00 0.00 50 1014.8
20260905175918 94 261 0.0 5.0 0.00 0.00 0.00 50 1014.8
20260905175418 95 237 0.0 3.0 0.00 0.00 0.00 50 1014.8
20260905174913 95 255 1.0 3.0 0.00 0.00 0.00 50 1014.8
20260905174409 95 90 0.0 0.0 0.00 0.00 0.00 51 1015.0
20260905173904 95 247 3.0 3.0 0.00 0.00 0.00 50 1015.1
20260905173401 95 270 0.0 2.0 0.00 0.00 0.00 48 1015.1
20260905172855 94 180 1.0 3.0 0.00 0.00 0.00 51 1014.9
20260905172353 94 200 0.0 1.0 0.00 0.00 0.00 54 1015.2
20260905171849 93 270 2.0 4.0 0.00 0.00 0.00 53 1014.9
20260905171346 95 345 0.0 2.0 0.00 0.00 0.00 52 1015.2
20260905170842 95 180 0.0 2.0 0.00 0.00 0.00 52 1015.1
20260905170338 95 264 0.0 2.0 0.00 0.00 0.00 54 1015.3
20260905165837 95 185 0.0 2.0 0.00 0.00 0.00 53 1015.2
20260905165332 93 209 1.0 3.0 0.00 0.00 0.00 54 1015.5
20260905164832 93 184 2.0 3.0 0.00 0.00 0.00 56 1015.6
20260905164327 93 251 2.0 3.0 0.00 0.00 0.00 56 1015.4
20260905163823 93 14 1.0 4.0 0.00 0.00 0.00 55 1015.4
20260905163319 93 195 1.0 3.0 0.00 0.00 0.00 56 1015.3
20260905162815 94 257 0.0 1.0 0.00 0.00 0.00 55 1015.6
20260905162314 92 303 2.0 2.0 0.00 0.00 0.00 55 1015.5
20260905161809 92 270 1.0 2.0 0.00 0.00 0.00 56 1015.4
20260905161308 92 300 0.0 2.0 0.00 0.00 0.00 55 1015.4
20260905160807 93 173 0.0 0.0 0.00 0.00 0.00 56 1015.1
20260905160301 93 261 0.0 2.0 0.00 0.00 0.00 58 1015.6
20260905155756 92 185 0.0 2.0 0.00 0.00 0.00 59 1015.3
20260905155255 92 105 0.0 2.0 0.00 0.00 0.00 59 1015.4
20260905154754 92 195 0.0 3.0 0.00 0.00 0.00 59 1015.4
20260905154251 91 270 0.0 3.0 0.00 0.00 0.00 61 1015.4
20260905153746 89 209 0.0 3.0 0.00 0.00 0.00 62 1015.5
20260905153242 89 254 0.0 3.0 0.00 0.00 0.00 64 1015.7
20260905152737 89 261 0.0 2.0 0.00 0.00 0.00 62 1015.6
20260905152236 89 257 0.0 2.0 0.00 0.00 0.00 64 1015.4
20260905151736 89 261 0.0 2.0 0.00 0.00 0.00 64 1015.3
20260905151233 89 258 2.0 3.0 0.00 0.00 0.00 64 1015.3
20260905150732 88 276 2.0 3.0 0.00 0.00 0.00 64 1015.4
20260905150231 87 270 0.0 4.0 0.00 0.00 0.00 65 1015.4
20260905145729 88 251 2.0 2.0 0.00 0.00 0.00 66 1015.2
20260905145224 87 233 0.0 2.0 0.00 0.00 0.00 67 1015.4
20260905144723 87 106 0.0 2.0 0.00 0.00 0.00 68 1015.2
20260905144218 86 276 2.0 3.0 0.00 0.00 0.00 68 1015.2
20260905143717 86 276 2.0 3.0 0.00 0.00 0.00 68 1015.6
20260905143217 85 120 0.0 1.0 0.00 0.00 0.00 71 1015.3
20260905142715 85 257 2.0 2.0 0.00 0.00 0.00 72 1015.3
20260905142210 84 246 0.0 3.0 0.00 0.00 0.00 73 1015.2
20260905141706 84 180 0.0 1.0 0.00 0.00 0.00 72 1015.4
20260905141202 84 246 0.0 0.0 0.00 0.00 0.00 74 1015.3
20260905140657 84 279 0.0 1.0 0.00 0.00 0.00 75 1015.3
20260905140157 84 240 0.0 1.0 0.00 0.00 0.00 76 1015.4
20260905135652 83 255 0.0 1.0 0.00 0.00 0.00 77 1015.1
20260905135148 83 188 0.0 1.0 0.00 0.00 0.00 78 1015.3
20260905134647 82 180 0.0 1.0 0.00 0.00 0.00 78 1015.3
20260905134146 82 246 0.0 1.0 0.00 0.00 0.00 78 1015.2
20260905133642 82 286 0.0 2.0 0.00 0.00 0.00 78 1015.1
20260905133142 82 180 0.0 0.0 0.00 0.00 0.00 79 1015.2
20260905132641 81 294 0.0 3.0 0.00 0.00 0.00 79 1015.2
20260905132136 81 186 0.0 1.0 0.00 0.00 0.00 80 1015.1
20260905131631 81 187 0.0 0.0 0.00 0.00 0.00 81 1015.0
20260905131127 80 246 0.0 0.0 0.00 0.00 0.00 83 1015.0
20260905130627 80 180 0.0 0.0 0.00 0.00 0.00 84 1014.9
20260905130127 79 180 0.0 0.0 0.00 0.00 0.00 85 1014.7
20260905125626 79 180 0.0 0.0 0.00 0.00 0.00 85 1014.8
20260905125122 78 195 0.0 0.0 0.00 0.00 0.00 85 1014.9
20260905124619 78 195 0.0 0.0 0.00 0.00 0.00 85 1014.6
20260905124114 78 180 0.0 0.0 0.00 0.00 0.00 86 1014.9
20260905123609 78 180 0.0 0.0 0.00 0.00 0.00 86 1014.5
20260905123107 77 180 0.0 0.0 0.00 0.00 0.00 86 1014.4
20260905122607 77 195 0.0 0.0 0.00 0.00 0.00 86 1014.5
20260905122106 77 195 0.0 0.0 0.00 0.00 0.00 85 1014.4
20260905121601 77 195 0.0 0.0 0.00 0.00 0.00 85 1014.3
20260905121057 77 195 0.0 0.0 0.00 0.00 0.00 85 1014.2
20260905120555 77 195 0.0 0.0 0.00 0.00 0.00 85 1014.3
20260905120051 78 195 0.0 0.0 0.00 0.00 0.00 85 1014.3
20260905115550 78 195 0.0 0.0 0.00 0.00 0.00 85 1014.4
20260905115045 78 195 0.0 0.0 0.00 0.00 0.00 85 1014.3
20260905114544 78 195 0.0 0.0 0.00 0.00 0.00 84 1014.3
20260905114043 78 195 0.0 1.0 0.00 0.00 0.00 84 1014.2
20260905113538 78 180 0.0 0.0 0.00 0.00 0.00 84 1014.1
20260905113033 78 180 0.0 0.0 0.00 0.00 0.00 84 1014.1
20260905112529 78 180 0.0 0.0 0.00 0.00 0.00 84 1014.1
20260905112025 78 180 0.0 0.0 0.00 0.00 0.00 84 1014.0
20260905111525 79 180 0.0 1.0 0.00 0.00 0.00 83 1014.2
20260905111024 78 180 0.0 0.0 0.00 0.00 0.00 83 1014.0
20260905110523 79 180 0.0 0.0 0.00 0.00 0.00 82 1014.3
20260905110019 79 200 0.0 0.0 0.00 0.00 0.00 82 1014.4
20260905105513 79 200 0.0 0.0 0.00 0.00 0.00 82 1014.2
20260905105012 79 165 0.0 1.0 0.00 0.00 0.00 82 1014.4
20260905104509 79 180 0.0 1.0 0.00 0.00 0.00 82 1014.5
20260905104008 79 180 0.0 0.0 0.00 0.00 0.00 81 1014.5
20260905103503 79 180 0.0 0.0 0.00 0.00 0.00 81 1014.4
20260905102959 79 180 0.0 0.0 0.00 0.00 0.00 81 1014.4
20260905102455 80 180 0.0 0.0 0.00 0.00 0.00 80 1014.4
20260905101950 80 180 0.0 1.0 0.00 0.00 0.00 80 1014.5
20260905101449 80 188 0.0 0.0 0.00 0.00 0.00 79 1014.4
20260905100948 80 188 0.0 0.0 0.00 0.00 0.00 79 1014.6
20260905100444 80 188 0.0 0.0 0.00 0.00 0.00 78 1014.4
20260905095943 81 203 0.0 1.0 0.00 0.00 0.00 78 1014.5
20260905095443 81 195 0.0 1.0 0.00 0.00 0.00 78 1014.3
20260905094939 81 188 0.0 1.0 0.00 0.00 0.00 78 1014.3
20260905094434 81 275 2.0 2.0 0.00 0.00 0.00 78 1014.0
20260905093933 80 254 0.0 1.0 0.00 0.00 0.00 79 1014.1
20260905093428 80 195 0.0 1.0 0.00 0.00 0.00 80 1014.1
20260905092924 80 180 0.0 0.0 0.00 0.00 0.00 80 1014.0
20260905092419 80 188 0.0 0.0 0.00 0.00 0.00 79 1013.9
20260905091914 81 246 0.0 0.0 0.00 0.00 0.00 79 1014.0
20260905091409 81 246 0.0 0.0 0.00 0.00 0.00 78 1013.7